Flag for U.S.A. Weather past 2 weeks in Denver, Colorado, U.S.A.

Now
79 °F

Partly sunny.


Feels Like: 79 °F
Forecast: 64 / 85 °F
Wind: 20 mph from Northwest

Location: Buckley Air Force Base

Current Time: Jun 30, 2015 at 8:19:33 PM

Latest Report: Jun 30, 2015 at 7:58 PM


Visibility: 10 mi

Pressure: 29.92 "Hg

Humidity: 40%

Dew point: 52 °F

Location of DenverLocation

Historic Weather in Denver — Graph

°F

Denver temperature yesterday

Maximum temperature yesterday: 86 °F (at 2:58 PM)
Minimum temperature yesterday: 62 °F (at 5:58 AM)
Average temperature yesterday: 73 °F

Past Weeks' High & Low Weather Summary

 TemperatureHumidityPressure
High91 °F (Jun 19, 12:58 PM)100% (Jun 26, 3:58 AM)30.17 "Hg (Jun 26, 3:58 AM)
Low53 °F (Jun 17, 5:58 AM)17% (Jun 19, 11:58 AM)29.68 "Hg (Jun 21, 7:58 PM)
Average71 °F58%29.96 "Hg
* Reported Jun 15 6:58 PM — Jun 30 6:58 PM, Denver, Weather by CustomWeather, © 2015

Note: Actual official high and low records may vary slightly from our data, if they occured in-between our weather recording intervals... More about our weather records

Advertising

Denver weather history for previous 24 hours

 ConditionsComfort  
Time TempWeatherWind HumidityBarometerVisibility
6:58 PM
Tue, Jun 30
82 °FPartly sunny.6 mph29%29.86 "Hg10 mi
5:58 PM81 °FBroken clouds.20 mph33%29.89 "Hg10 mi
4:58 PM90 °FBroken clouds.No wind22%29.86 "Hg10 mi
3:58 PM90 °FScattered clouds.3 mph23%29.84 "Hg10 mi
2:58 PM90 °FScattered clouds.7 mph23%29.86 "Hg10 mi
1:58 PM90 °FScattered clouds.No wind20%29.87 "Hg10 mi
12:58 PM87 °FScattered clouds.No wind22%29.90 "Hg10 mi
11:58 AM86 °FScattered clouds.2 mph22%29.92 "Hg10 mi
10:58 AM82 °FScattered clouds.2 mph34%29.94 "Hg10 mi
9:58 AM78 °FPartly sunny.2 mph42%29.97 "Hg10 mi
8:58 AM75 °FPartly sunny.8 mph46%29.96 "Hg10 mi
7:58 AM71 °FPartly sunny.9 mph54%29.97 "Hg10 mi
6:58 AM65 °FPartly sunny.No wind67%29.98 "Hg10 mi
5:58 AM61 °FPassing clouds.7 mph72%29.97 "Hg10 mi
4:58 AM62 °FPassing clouds.9 mph67%29.98 "Hg10 mi
3:58 AM62 °FPassing clouds.8 mph66%29.96 "Hg10 mi
2:58 AM64 °FPassing clouds.3 mph62%29.98 "Hg10 mi
1:58 AM65 °FPassing clouds.9 mph61%29.99 "Hg10 mi
12:58 AM64 °FPassing clouds.9 mph69%30.01 "Hg10 mi
11:58 PM
Mon, Jun 29
67 °FPassing clouds.8 mph65%30.02 "Hg10 mi
10:58 PM69 °FClear.7 mph61%30.04 "Hg10 mi
10:55 PM69 °FPassing clouds.8 mph61%30.03 "Hg10 mi
9:58 PM68 °FPassing clouds.7 mph59%30.03 "Hg10 mi
8:58 PM74 °FPassing clouds.7 mph45%30.02 "Hg10 mi
Weather by CustomWeather, © 2015

See weather overviewHow to use our weather pages